This is the latest recevied weather packets stored in our database for station/object KD9CCP. If no packets are shown the sender has not sent any weather packets the latest 10 day(s).
| Time | Temp. | Humidity | Pressure | Rain* | Wind** | Luminosity | Snow |
|---|---|---|---|---|---|---|---|
| 1778001722 | 5° C | 58% | 1008.4 hPa | 0 mm | - | 92 W/m² | - |
| 1778001422 | 5° C | 55% | 1008.4 hPa | 0 mm | - | 87 W/m² | - |
| 1778001119 | 5° C | 55% | 1008.4 hPa | 0 mm | - | 211 W/m² | - |
| 1778000816 | 5° C | 60% | 1008.4 hPa | 0 mm | - | 117 W/m² | - |
| 1778000513 | 5° C | 57% | 1008.3 hPa | 0 mm | - | 72 W/m² | - |
| 1778000212 | 5° C | 61% | 1008.2 hPa | 0 mm | - | 108 W/m² | - |
| 1777999909 | 5° C | 61% | 1008.2 hPa | 0 mm | - | 88 W/m² | - |
| 1777999604 | 5° C | 60% | 1008.4 hPa | 0 mm | - | 58 W/m² | - |
| 1777999302 | 5° C | 60% | 1008 hPa | 0 mm | - | 78 W/m² | - |
| 1777999000 | 4.44° C | 62% | 1008.1 hPa | 0 mm | - | 120 W/m² | - |
| 1777998698 | 4.44° C | 63% | 1008.1 hPa | 0 mm | - | 57 W/m² | - |
| 1777998395 | 4.44° C | 64% | 1008.3 hPa | 0 mm | - | 54 W/m² | - |
| 1777998093 | 5° C | 65% | 1008.1 hPa | 0 mm | - | 81 W/m² | - |
| 1777997789 | 5° C | 58% | 1008 hPa | 0 mm | - | 57 W/m² | - |
| 1777997486 | 5° C | 60% | 1008 hPa | 0 mm | - | 60 W/m² | - |
| 1777997184 | 5° C | 67% | 1008 hPa | 0 mm | - | 97 W/m² | - |
| 1777996882 | 4.44° C | 63% | 1007.9 hPa | 0 mm | - | 354 W/m² | - |
| 1777996577 | 4.44° C | 68% | 1008.1 hPa | 0 mm | - | 148 W/m² | - |
| 1777996274 | 3.89° C | 70% | 1007.9 hPa | 0 mm | - | 82 W/m² | - |
| 1777995970 | 3.89° C | 70% | 1008 hPa | 0 mm | - | 108 W/m² | - |
| 1777995666 | 2.78° C | 74% | 1008.1 hPa | 0 mm | - | 505 W/m² | - |
| 1777995364 | 2.78° C | 74% | 1008 hPa | 0 mm | - | 55 W/m² | - |
| 1777995061 | 2.78° C | 76% | 1008.3 hPa | 0 mm | - | 43 W/m² | - |
| 1777994757 | 3.33° C | 75% | 1008 hPa | 0 mm | - | 36 W/m² | - |
| 1777994453 | 3.33° C | 73% | 1007.9 hPa | 0 mm | - | 32 W/m² | - |
* Rain latest hour (hover to see other rain measurements)
** Current wind speed in m/s (hover to see current wind gust speed)